This demonstration page uses our WeatherBlox Daily Observations layout. Learn more.

Left ArrowRight Arrow

41.55636, -103.73856

Hourly Observations for October 8, 2022

Temp ( °F °C ) Dew Point ( °F °C ) Humidity (%) Winds ( mph kmh ) Pressure ( in mb ) Visibility ( mi km ) Precip ( " mm )
12:56 am 00:56 Clear 42 5.8 37 2.6 80 80 SW 9 15 30.37 1029 10 16 0.00 0.00
1:56 am 01:56 Clear 39 4 35 1.7 85 85 WSW 9 15 30.38 1029 10 16 0.00 0.00
2:56 am 02:56 Clear 40 4.2 36 2.1 86 86 Calm 30.36 1028 10 16 0.00 0.00
3:56 am 03:56 Clear 34 1.3 33 0.4 94 94 W 6 9 30.38 1029 10 16 0.00 0.00
4:56 am 04:56 Clear 32 0.2 31 -0.7 94 94 W 6 9 30.38 1029 10 16 0.00 0.00
5:56 am 05:56 Clear 32 0.2 31 -0.5 95 95 WSW 7 11 30.38 1029 10 16 0.00 0.00
6:56 am 06:56 Clear with Mist and Fog 32 -0.2 30 -0.9 95 95 W 5 7 30.40 1029 6 10 0.00 0.00
7:56 am 07:56 Sunny 35 1.6 34 0.9 95 95 W 6 9 30.38 1029 10 16 0.00 0.00
8:56 am 08:56 Sunny 44 6.7 39 4 83 83 W 3 6 30.38 1029 10 16 0.00 0.00
9:56 am 09:56 Sunny 51 10.5 41 4.8 68 68 N 5 7 30.35 1028 10 16 0.00 0.00
10:56 am 10:56 Sunny 58 14.5 37 3 46 46 Calm 30.32 1027 10 16 0.00 0.00
11:56 am 11:56 Sunny 61 16.1 35 1.4 37 37 Calm 30.31 1026 10 16 0.00 0.00
12:56 pm 12:56 Sunny 63 17.2 33 0.4 32 32 ENE 5 7 30.27 1025 10 16 0.00 0.00
1:56 pm 13:56 Sunny 64 17.6 32 -0.2 30 30 ENE 5 7 30.24 1024 10 16 0.00 0.00
2:56 pm 14:56 Sunny 65 18.2 31 -0.6 28 28 E 3 6 30.22 1023 10 16 0.00 0.00
3:56 pm 15:56 Sunny 66 18.8 31 -0.6 27 27 ENE 3 6 30.20 1023 10 16 0.00 0.00
4:56 pm 16:56 Sunny 65 18.1 32 -0.2 29 29 NE 6 9 30.21 1023 10 16 0.00 0.00
5:56 pm 17:56 Sunny 60 15.6 32 0.2 35 35 E 6 9 30.22 1023 10 16 0.00 0.00
6:56 pm 18:56 Clear 55 12.5 33 0.3 43 43 SE 7 11 30.24 1024 10 16 0.00 0.00
7:56 pm 19:56 Clear 54 12.3 32 0.1 43 43 SSE 8 13 30.24 1024 10 16 0.00 0.00
8:56 pm 20:56 Clear 48 8.7 33 0.4 56 56 SW 7 11 30.24 1024 10 16 0.00 0.00
9:56 pm 21:56 Clear 51 10.5 31 -0.3 47 47 SSW 10 17 30.21 1023 10 16 0.00 0.00
10:56 pm 22:56 Clear 47 8.4 31 -0.6 53 53 NNE 6 9 30.21 1023 10 16 0.00 0.00
11:56 pm 23:56 Clear 48 8.8 31 -0.5 52 52 Calm 30.18 1022 10 16 0.00 0.00

Powered by AerisWeather